Stations météo

réclame
Mon MeteoGroup
Ajaccio, France (7761): Température de l'air & dewpoint: 11.12.2018 07:00:00 - 17.12.2018 07:00:00 (CET)Ajaccio, France (7761): Température de l'air 5cm: 11.12.2018 07:00:00 - 17.12.2018 07:00:00 (CET)Ajaccio, France (7761): Température de l'air -20cm & Température de l'air -100cm: 11.12.2018 07:00:00 - 17.12.2018 07:00:00 (CET)Ajaccio, France (7761): Vitesse du vent & gusts: 11.12.2018 07:00:00 - 17.12.2018 07:00:00 (CET)Ajaccio, France (7761): Direction du vent: 11.12.2018 07:00:00 - 17.12.2018 07:00:00 (CET)Ajaccio, France (7761): reduced air pressure: 11.12.2018 07:00:00 - 17.12.2018 07:00:00 (CET)Ajaccio, France (7761): visibility: 11.12.2018 07:00:00 - 17.12.2018 07:00:00 (CET)Ajaccio, France (7761): Ensoleillement: 11.12.2018 07:00:00 - 17.12.2018 07:00:00 (CET)Ajaccio, France (7761): Quantités de précipitations: 11.12.2018 07:00:00 - 17.12.2018 07:00:00 (CET)
Date & Time tt [°C] td [°C] tt 5cm [°C] tt -20cm [°C] tt -100cm [°C] ff [km/h] ff [knt] fx [km/h] fx [knt] dd ppp [hPa] vv [km] sd [min] rr [mm]
17.12.2018 07:00:00 - - - - - - - - - - - - - -
17.12.2018 06:00:00 11,6 9,7 10,5 12,5 15,4 7 4 23 13 WNW 1014,5 16 0 0,2
17.12.2018 05:00:00 11,8 10,0 10,6 12,4 15,4 4 2 16 9 ENE 1014,3 4,8 0 2,2
17.12.2018 04:00:00 12,2 9,4 10,6 12,4 15,4 6 4 12 6 WNW 1014,3 12 0 0,6
17.12.2018 03:00:00 12,4 9,2 10,6 12,4 15,4 6 3 20 11 WNW 1014,7 11 0 0,6
17.12.2018 02:00:00 12,4 9,6 10,9 12,4 15,4 8 5 16 8 NW 1014,2 60 0 1,0
17.12.2018 01:00:00 12,6 10,0 11,1 12,3 15,4 8 4 35 19 WNW 1013,8 16 0 0,4
17.12.2018 00:00:00 12,9 10,4 11,4 12,3 15,4 10 6 21 11 NW 1013,7 28 0 0,0
16.12.2018 23:00:00 12,9 10,8 11,6 12,2 15,4 10 5 35 19 NW 1013,0 14 0 1,6
16.12.2018 22:00:00 14,4 11,9 13,0 12,2 15,4 26 14 50 27 W 1012,5 11 0 0,0
16.12.2018 21:00:00 15,1 12,4 13,7 12,1 15,4 27 15 40 22 WSW 1012,4 17 0 0,0
16.12.2018 20:00:00 15,0 13,2 13,6 12,1 15,4 22 12 44 24 SW 1012,6 12 0 0,0
16.12.2018 19:00:00 15,1 14,0 11,2 12,1 15,4 27 15 41 22 SW 1012,7 11 0 0,4
16.12.2018 18:00:00 11,8 11,0 10,9 12,1 15,5 8 4 12 7 NE 1012,8 2,4 0 2,0
16.12.2018 17:00:00 11,5 10,6 10,8 12,0 15,5 7 4 17 9 NE 1014,0 2,9 0 0,6
16.12.2018 16:00:00 11,5 10,4 10,5 12,0 15,5 9 5 18 10 ENE 1014,7 2,4 0 0,8
16.12.2018 15:00:00 11,3 9,7 10,4 12,0 15,5 9 5 19 10 NNE 1015,4 2,8 0 0,0
16.12.2018 14:00:00 11,1 9,4 10,0 12,0 15,5 12 6 18 10 NNE 1016,2 18 0 0,2
16.12.2018 13:00:00 11,4 8,4 9,7 12,0 15,5 9 5 17 9 NE 1017,2 6 0 0,2
16.12.2018 12:00:00 11,4 4,6 10,8 12,1 15,5 7 4 17 9 NE 1017,6 38 0 0,0
16.12.2018 11:00:00 10,7 5,9 9,3 12,1 15,4 8 4 16 8 ENE 1018,7 32 0 0,0
16.12.2018 10:00:00 9,7 4,5 8,7 12,1 15,5 8 4 14 8 NE 1018,8 49 0 0,0
16.12.2018 09:00:00 9,2 4,0 8,1 12,1 15,5 9 5 17 9 NE 1018,5 59 0 0,0
16.12.2018 08:00:00 8,5 3,9 7,8 12,2 15,5 7 4 15 8 NE 1019,1 57 0 0,0
16.12.2018 07:00:00 8,6 3,6 7,8 12,2 15,5 7 4 15 8 NE 1019,0 57 0 0,0
16.12.2018 06:00:00 8,6 3,4 7,2 12,3 15,5 8 4 17 9 NNE 1018,8 44 0 0,0
16.12.2018 05:00:00 8,0 3,5 7,2 12,4 15,5 13 7 16 9 NNE 1019,0 50 0 0,0
16.12.2018 04:00:00 7,9 3,0 6,4 12,4 15,5 10 5 16 9 NE 1019,3 50 0 0,0
16.12.2018 03:00:00 6,8 3,0 5,7 12,5 15,5 9 5 15 8 NE 1019,9 45 0 0,0
16.12.2018 02:00:00 6,2 2,6 4,7 12,6 15,5 10 5 17 9 NE 1020,2 39 0 0,0
16.12.2018 01:00:00 5,1 2,1 3,9 12,6 15,5 13 7 18 10 NE 1020,4 31 0 0,0
16.12.2018 00:00:00 4,4 1,8 2,8 12,7 15,5 10 6 21 11 NE 1020,8 26 0 0,0
15.12.2018 23:00:00 4,0 1,7 2,6 12,8 15,5 13 7 18 10 NE 1020,6 20 0 0,0
15.12.2018 22:00:00 4,6 2,1 3,0 12,8 15,5 9 5 16 9 NE 1020,4 19 0 0,0
15.12.2018 21:00:00 5,2 2,0 3,9 12,9 15,5 11 6 16 9 NE 1020,3 21 0 0,0
15.12.2018 20:00:00 5,4 2,4 4,0 12,9 15,5 11 6 16 9 NE 1020,2 21 0 0,0
15.12.2018 19:00:00 6,7 2,6 4,7 12,9 15,5 9 5 13 7 ENE 1019,6 20 0 0,0
15.12.2018 18:00:00 8,0 2,7 4,8 12,8 15,5 8 4 13 7 ENE 1019,4 27 0 0,0
15.12.2018 17:00:00 10,7 2,5 7,6 12,8 15,5 7 4 19 10 WNW 1018,7 33 40 0,0
15.12.2018 16:00:00 12,5 3,2 10,9 12,8 15,5 14 8 20 11 W 1018,2 33 60 0,0
15.12.2018 15:00:00 13,1 2,6 13,6 12,7 15,5 15 8 28 15 WNW 1017,6 56 60 0,0
15.12.2018 14:00:00 13,4 2,3 15,6 12,6 15,5 13 7 23 12 W 1017,4 60 60 0,0
15.12.2018 13:00:00 13,2 1,8 17,4 12,6 15,5 10 5 20 11 SSW 1017,6 60 60 0,0
15.12.2018 12:00:00 13,2 4,1 16,4 12,6 15,5 4 2 9 5 S 1017,8 42 60 0,0
15.12.2018 11:00:00 11,6 3,9 15,5 12,7 15,5 2 1 9 5 ESE 1017,9 50 60 0,0
15.12.2018 10:00:00 9,0 6,1 7,3 12,7 15,6 5 3 9 5 ENE 1017,9 20 48 0,0
15.12.2018 09:00:00 6,8 5,4 4,4 12,7 15,6 4 2 12 6 NNE 1017,2 22 0 0,0
15.12.2018 08:00:00 6,1 4,6 4,1 12,8 15,6 6 3 12 7 NE 1016,4 22 0 0,0
15.12.2018 07:00:00 7,3 5,3 5,5 12,8 15,6 7 4 10 5 NE 1015,9 24 0 0,0
15.12.2018 06:00:00 8,5 5,9 7,0 12,8 15,6 3 1 10 5 NE 1015,3 33 0 0,0
15.12.2018 05:00:00 8,9 6,5 8,3 12,8 15,6 6 3 12 6 NNE 1014,9 40 0 0,0
15.12.2018 04:00:00 8,9 6,7 8,1 12,9 15,6 8 5 13 7 NE 1014,8 35 0 0,0
15.12.2018 03:00:00 9,0 7,0 8,2 12,9 15,6 6 3 10 5 ENE 1014,5 28 0 0,0
15.12.2018 02:00:00 8,9 6,7 8,0 12,9 15,6 7 4 13 7 NE 1013,9 31 0 0,0
15.12.2018 01:00:00 9,1 6,9 8,0 12,9 15,6 5 3 9 5 NE 1013,5 23 0 0,0
15.12.2018 00:00:00 9,5 7,1 7,1 12,9 15,6 7 4 10 5 NE 1013,5 31 0 0,0
14.12.2018 23:00:00 9,9 7,0 7,3 12,9 15,6 4 2 9 5 N 1013,1 30 0 0,0
14.12.2018 22:00:00 10,7 7,9 9,8 12,8 15,6 5 3 9 5 NNE 1012,9 35 0 0,0
14.12.2018 21:00:00 10,8 8,7 8,9 12,8 15,6 2 1 9 5 ESE 1012,5 11 0 0,0
14.12.2018 20:00:00 11,4 8,4 9,6 12,8 15,6 0 0 8 4 N 1012,2 36 0 0,0
14.12.2018 19:00:00 11,6 8,3 10,1 12,8 15,6 2 1 7 4 E 1011,5 57 0 0,0
14.12.2018 18:00:00 12,0 8,3 10,8 12,7 15,6 0 0 17 9 N 1010,7 50 0 0,0
14.12.2018 17:00:00 12,6 8,5 12,0 12,7 15,6 13 7 22 12 SSW 1009,9 40 12 0,0
14.12.2018 16:00:00 13,1 9,2 12,7 12,6 15,6 16 8 29 16 SSW 1009,3 49 0 0,0
14.12.2018 15:00:00 13,9 10,1 13,4 12,6 15,7 9 5 28 15 W 1008,7 50 0 0,0
14.12.2018 14:00:00 13,6 9,8 14,8 12,6 15,7 5 3 8 4 WNW 1008,7 20 0 0,0
14.12.2018 13:00:00 13,8 9,8 14,7 12,6 15,6 2 1 7 4 ENE 1008,9 56 0 0,0
14.12.2018 12:00:00 13,3 9,2 14,2 12,6 15,7 3 1 7 4 SE 1009,0 60 1 0,0
14.12.2018 11:00:00 12,6 9,1 12,6 12,5 15,7 4 2 6 3 S 1009,0 20 0 0,0
14.12.2018 10:00:00 11,9 8,4 10,0 12,6 15,7 2 1 13 7 N 1008,4 59 0 0,0
14.12.2018 09:00:00 10,4 8,7 8,9 12,5 15,7 5 3 8 5 ENE 1007,6 34 0 0,0
14.12.2018 08:00:00 10,1 7,9 8,7 12,6 15,7 8 4 12 7 SE 1007,1 35 0 0,0
14.12.2018 07:00:00 9,7 7,0 8,6 12,6 15,7 8 4 12 7 NE 1006,5 60 0 0,0
14.12.2018 06:00:00 9,5 6,9 8,5 12,6 15,7 3 2 16 9 NNE 1005,9 43 0 0,0
14.12.2018 05:00:00 9,2 7,5 8,4 12,6 15,7 7 4 12 7 NE 1005,9 60 0 0,0
14.12.2018 04:00:00 9,5 8,3 8,6 12,6 15,7 6 3 9 5 NNE 1006,1 15 0 0,2
14.12.2018 03:00:00 9,4 7,8 8,5 12,6 15,7 4 2 6 4 NNE 1006,7 6 0 0,4
14.12.2018 02:00:00 9,4 7,5 8,4 12,6 15,7 4 2 10 5 SSE 1006,3 19 0 0,0
14.12.2018 01:00:00 9,5 7,3 8,5 12,6 15,7 7 4 10 5 NNE 1006,2 46 0 0,2
14.12.2018 00:00:00 9,7 8,1 8,7 12,6 15,7 7 4 13 7 NNE 1006,6 12 0 0,2
13.12.2018 23:00:00 9,7 8,1 8,4 12,6 15,7 4 2 6 4 E 1006,6 7 0 0,2
13.12.2018 22:00:00 9,9 7,8 8,4 12,6 15,7 3 2 8 5 SE 1006,5 8 0 0,0
13.12.2018 21:00:00 9,8 7,4 8,6 12,6 15,7 5 3 13 7 ENE 1006,6 28 0 0,0
13.12.2018 20:00:00 9,7 7,0 8,6 12,6 15,8 6 3 13 7 ENE 1006,7 30 0 0,4
13.12.2018 19:00:00 9,9 7,8 8,5 12,6 15,8 5 3 12 6 E 1006,8 7 0 0,6
13.12.2018 18:00:00 10,0 7,2 8,7 12,6 15,7 7 4 16 9 NE 1006,8 4,8 0 0,4
13.12.2018 17:00:00 9,9 7,5 8,8 12,6 15,8 8 4 11 6 NNE 1007,1 17 0 0,2
13.12.2018 16:00:00 10,4 8,5 9,5 12,6 15,8 6 3 9 5 NE 1007,9 18 0 0,4
13.12.2018 15:00:00 10,6 8,2 9,7 12,5 15,8 5 3 8 5 NNE 1008,6 11 0 0,0
13.12.2018 14:00:00 11,1 8,3 10,1 12,5 15,8 6 3 9 5 NE 1009,0 9 0 0,4
13.12.2018 13:00:00 11,5 8,5 10,3 12,5 15,8 4 2 5 3 ENE 1009,7 16 0 0,2
13.12.2018 12:00:00 11,5 8,0 10,3 12,5 15,8 5 3 6 4 ENE 1010,4 16 0 0,0
13.12.2018 11:00:00 12,3 7,2 13,0 12,5 15,8 4 2 8 4 NNE 1011,0 57 0 0,0
13.12.2018 10:00:00 11,5 6,2 9,7 12,5 15,8 6 4 13 7 NNE 1011,2 47 49 0,0
13.12.2018 09:00:00 10,1 6,8 7,9 12,5 15,8 5 3 12 6 ENE 1011,7 54 26 0,0
13.12.2018 08:00:00 9,2 6,5 7,8 12,6 15,9 9 5 16 9 NNE 1011,8 57 0 0,0
13.12.2018 07:00:00 9,4 6,8 8,3 12,6 15,9 11 6 16 8 NNE 1011,7 46 0 0,0
13.12.2018 06:00:00 9,1 6,9 8,1 12,6 15,9 10 5 16 8 NNE 1011,8 45 0 0,0
13.12.2018 05:00:00 9,1 7,0 7,7 12,6 15,9 7 4 16 9 NE 1012,4 38 0 0,0
13.12.2018 04:00:00 9,0 6,3 7,9 12,6 15,8 10 5 15 8 NNE 1013,0 43 0 0,0
13.12.2018 03:00:00 8,5 5,8 7,2 12,7 15,9 10 5 14 7 NNE 1013,6 38 0 0,0
13.12.2018 02:00:00 8,2 5,7 6,5 12,7 15,9 9 5 12 7 NE 1014,0 32 0 0,0
13.12.2018 01:00:00 8,6 5,5 7,0 12,7 15,9 8 5 12 6 NE 1014,2 28 0 0,0
13.12.2018 00:00:00 8,5 5,6 7,5 12,7 15,9 7 4 10 6 NE 1014,9 29 0 0,0
12.12.2018 23:00:00 8,5 5,1 7,7 12,7 15,9 6 3 13 7 NE 1015,2 30 0 0,0
12.12.2018 22:00:00 8,8 5,2 7,8 12,7 15,9 8 4 15 8 ENE 1015,0 26 0 0,0
12.12.2018 21:00:00 9,0 5,0 7,9 12,7 15,9 8 4 16 9 NNE 1015,3 31 0 0,0
12.12.2018 20:00:00 9,6 5,8 8,7 12,7 15,9 11 6 15 8 NE 1015,4 21 0 0,0
12.12.2018 19:00:00 10,1 6,1 8,7 12,6 15,9 10 5 12 7 NE 1015,2 19 0 0,0
12.12.2018 18:00:00 11,0 7,1 9,8 12,6 15,9 6 3 10 6 ENE 1015,4 13 0 0,0
12.12.2018 17:00:00 12,4 7,5 10,3 12,5 15,9 5 3 6 3 ENE 1015,4 8 0 0,0
12.12.2018 16:00:00 13,5 5,9 12,6 12,5 15,9 3 1 6 3 N 1015,9 42 0 0,0
12.12.2018 15:00:00 13,9 5,0 13,7 12,4 15,9 4 2 7 4 ENE 1015,5 47 0 0,0
12.12.2018 14:00:00 14,4 4,7 15,9 12,4 15,9 3 2 5 3 ENE 1016,0 56 0 0,0
12.12.2018 13:00:00 14,1 3,8 15,8 12,4 15,9 3 2 9 5 W 1016,8 56 14 0,0
12.12.2018 12:00:00 14,2 4,5 17,0 12,5 16,0 5 3 8 4 N 1017,6 42 51 0,0
12.12.2018 11:00:00 11,8 4,5 13,9 12,5 16,0 5 3 15 8 NNE 1017,9 40 60 0,0
12.12.2018 10:00:00 8,9 3,7 6,2 12,6 16,0 9 5 14 8 NE 1018,1 33 30 0,0
12.12.2018 09:00:00 6,4 2,3 4,6 12,7 16,0 11 6 19 11 NE 1018,1 39 0 0,0
12.12.2018 08:00:00 6,2 1,5 4,5 12,7 16,0 10 5 16 8 NE 1017,7 58 0 0,0
12.12.2018 07:00:00 5,1 1,4 3,2 12,8 16,0 13 7 21 12 NNE 1017,5 59 0 0,0
12.12.2018 06:00:00 4,2 1,2 2,8 12,9 16,0 14 7 21 11 NNE 1017,5 59 0 0,0
12.12.2018 05:00:00 3,9 0,9 2,7 12,9 16,0 13 7 21 11 NE 1017,9 56 0 0,0
12.12.2018 04:00:00 4,3 1,5 3,0 13,0 16,0 11 6 21 12 NE 1018,1 51 0 0,0
12.12.2018 03:00:00 4,7 1,9 3,5 13,1 16,0 11 6 19 10 NE 1018,2 42 0 0,0
12.12.2018 02:00:00 5,3 2,6 3,0 13,2 16,0 13 7 19 11 NNE 1018,3 43 0 0,0
12.12.2018 01:00:00 5,2 2,7 4,0 13,2 16,0 13 7 19 10 NNE 1018,5 37 0 0,0
12.12.2018 00:00:00 5,5 3,2 3,9 13,3 16,0 10 6 16 9 NE 1018,7 31 0 0,0
11.12.2018 23:00:00 6,1 3,6 4,6 13,3 16,0 9 5 16 9 NE 1018,6 27 0 0,0
11.12.2018 22:00:00 6,4 4,1 5,1 13,3 16,0 10 5 15 8 NNE 1018,5 22 0 0,0
11.12.2018 21:00:00 6,6 4,8 4,6 13,4 16,0 11 6 14 7 NE 1018,2 16 0 0,0
11.12.2018 20:00:00 7,4 4,7 5,8 13,3 16,0 9 5 13 7 ENE 1018,1 14 0 0,0
11.12.2018 19:00:00 9,8 6,0 7,9 13,3 16,0 6 3 14 7 NE 1017,7 17 0 0,0
11.12.2018 18:00:00 10,7 5,7 7,9 13,3 16,0 5 3 9 5 E 1017,5 43 0 0,0
11.12.2018 17:00:00 13,2 6,3 11,1 13,2 16,0 9 5 19 11 SSW 1017,2 41 35 0,0
11.12.2018 16:00:00 14,7 6,5 14,2 13,1 16,0 16 9 22 12 SW 1017,0 39 60 0,0
11.12.2018 15:00:00 15,6 6,8 18,0 13,0 16,0 16 8 26 14 WSW 1017,0 48 60 0,0
11.12.2018 14:00:00 15,3 7,3 17,2 13,0 16,0 18 10 24 13 SW 1017,2 38 58 0,0
11.12.2018 13:00:00 15,1 6,9 19,7 13,0 16,0 9 5 16 8 W 1017,6 51 60 0,0
11.12.2018 12:00:00 14,4 5,5 20,3 13,0 16,0 6 4 10 5 WNW 1018,1 20 60 0,0
11.12.2018 11:00:00 13,3 5,9 15,6 13,1 16,0 4 2 12 6 NE 1018,5 45 60 0,0
11.12.2018 10:00:00 9,9 5,5 9,0 13,2 16,0 9 5 15 8 NNE 1018,9 19 60 0,0
11.12.2018 09:00:00 6,8 3,8 4,0 13,3 16,0 11 6 19 10 NNE 1018,7 33 38 0,0
11.12.2018 08:00:00 5,1 2,9 3,1 13,4 16,1 13 7 18 10 NE 1018,6 35 0 0,0
11.12.2018 07:00:00 6,1 2,5 4,4 13,4 16,0 11 6 19 10 NE 1018,0 42 0 0,0

tt = Température de l'air
td = dewpoint
tt 5cm = Température de l'air 5cm
tt -20cm = Température de l'air -20cm
tt -100cm = Température de l'air -100cm
ff = Vitesse du vent
fx = gusts
dd = Direction du vent
ppp = reduced air pressure
vv = visibility
sd = Ensoleillement
rr = Quantités de précipitations

stations d'obs. à proximité